GW4151 Weather Reports


time (UTC)temp
F
wind
direction
speed
knots
gust
knots
rain 1hr
in
rain 24hr
in
rain mn
in
humidity
%
barometer
mb
20260505212259 51 187 1.7 7.8 0.00 0.01 0.01 45 988.7
20260505210754 51 232 4.3 7.0 0.00 0.01 0.01 45 988.9
20260505205253 52 265 5.2 7.8 0.00 0.01 0.01 44 989.0
20260505203749 53 299 2.6 6.1 0.00 0.01 0.01 44 988.9
20260505202244 53 281 3.5 6.1 0.00 0.01 0.01 43 989.0
20260505200743 53 316 1.7 7.8 0.00 0.01 0.01 45 989.0
20260505195238 52 227 5.2 7.8 0.00 0.01 0.01 43 989.2
20260505193733 52 257 4.3 7.8 0.00 0.01 0.01 45 988.9
20260505192233 52 307 6.1 7.8 0.00 0.01 0.01 43 989.0
20260505190731 54 261 6.1 8.7 0.00 0.01 0.01 43 989.0
20260505185230 52 282 5.2 8.7 0.00 0.01 0.01 43 988.8
20260505183726 52 243 3.5 9.6 0.00 0.01 0.01 42 988.5
20260505182223 52 353 5.2 11.3 0.00 0.01 0.01 43 988.7
20260505180719 52 297 4.3 7.8 0.00 0.01 0.01 43 988.5
20260505175214 52 352 5.2 12.2 0.00 0.01 0.01 43 988.8
20260505173710 53 288 11.3 12.2 0.00 0.01 0.01 40 988.5
20260505172206 52 265 6.1 12.2 0.00 0.01 0.01 42 988.4
20260505170706 52 274 7.8 13.0 0.00 0.01 0.01 40 988.1
20260505165205 51 213 6.1 12.2 0.00 0.01 0.01 40 987.8
20260505163702 51 333 7.8 8.7 0.00 0.01 0.01 39 987.9
20260505162200 51 279 3.5 8.7 0.00 0.01 0.01 40 987.9
20260505160657 51 296 8.7 12.2 0.00 0.01 0.01 38 988.0
20260505152144 51 261 5.2 13.0 0.00 0.01 0.01 41 988.1
20260505150644 49 291 5.2 8.7 0.00 0.01 0.01 43 988.3
20260505140633 49 242 7.0 9.6 0.00 0.01 0.01 45 988.0
20260505123611 47 289 1.7 7.0 0.00 0.01 0.01 70 986.8
20260505122108 47 261 7.8 11.3 0.00 0.01 0.01 71 987.3
20260505120603 47 297 3.5 5.2 0.00 0.01 0.01 75 985.8
20260505115103 47 288 1.7 3.5 0.00 0.01 0.01 79 985.6
20260505113559 45 266 4.3 6.1 0.00 0.01 0.01 84 985.8
20260505112056 45 271 2.6 6.1 0.00 0.01 0.01 85 985.4
20260505110554 46 274 5.2 7.0 0.00 0.01 0.01 85 984.9
20260505102044 45 304 2.6 5.2 0.00 0.01 0.01 84 984.1
20260505100541 45 234 1.7 2.6 0.00 0.01 0.01 84 983.9
20260505095037 45 259 3.5 7.0 0.00 0.01 0.01 82 984.0
20260505093532 47 287 2.6 6.1 0.00 0.01 0.01 78 983.3
20260505092031 48 263 2.6 2.6 0.00 0.01 0.01 74 982.7
20260505090529 49 290 4.3 7.0 0.00 0.01 0.01 71 982.7
20260505085027 49 242 1.7 3.5 0.00 0.01 0.01 71 982.4
20260505083526 50 254 0.9 2.6 0.00 0.01 0.01 70 982.4
20260505082021 51 277 3.5 5.2 0.00 0.01 0.01 66 982.0
20260505080516 52 272 4.3 6.1 0.00 0.01 0.01 63 981.4
20260505075012 52 269 3.5 6.1 0.00 0.01 0.01 61 981.6
20260505073509 52 334 3.5 6.1 0.00 0.01 0.01 65 981.6
20260505072005 52 241 1.7 5.2 0.00 0.01 0.01 67 981.4
20260505070502 51 232 0.9 5.2 0.00 0.01 0.01 79 981.5
20260505064956 51 231 3.5 5.2 0.00 0.01 0.01 84 981.4
20260505063454 51 225 0.9 1.7 0.00 0.01 0.01 88 981.1
20260505061950 52 222 0.9 1.7 0.05 0.01 0.01 88 981.1
20260505060449 53 178 0.0 1.7 0.00 0.00 0.00 86 980.7
20260505054949 53 257 3.5 5.2 0.00 0.00 0.00 86 981.0
20260505053447 53 187 1.7 3.5 0.00 0.00 0.00 86 980.8
20260505051943 54 221 2.6 5.2 0.00 0.00 0.00 85 980.5
20260505050442 54 199 1.7 3.5 0.00 0.00 0.00 85 980.2
20260505040428 57 241 2.6 7.8 0.00 0.00 0.00 80 979.7
20260505034924 56 212 4.3 12.2 0.00 0.01 0.01 79 979.7
20260505033420 63 310 9.6 13.9 0.00 0.01 0.01 71 980.1
20260505031917 63 235 1.7 5.2 0.00 0.01 0.01 73 979.0
20260505030413 62 191 4.3 6.1 0.00 0.01 0.01 74 978.5
20260505024911 62 201 2.6 6.1 0.00 0.01 0.01 73 978.1
20260505023408 62 149 2.6 7.0 0.00 0.01 0.01 72 978.1
20260505021904 62 214 4.3 7.8 0.00 0.01 0.01 72 977.9
20260505020404 62 158 5.2 8.7 0.00 0.01 0.01 72 978.0
20260505014901 63 165 7.0 11.3 0.00 0.01 0.01 74 977.7
20260505013358 66 151 4.3 7.8 0.00 0.00 0.00 65 978.4
20260505011855 68 223 7.8 13.9 0.00 0.00 0.00 63 977.5
20260505010350 69 196 4.3 7.8 0.00 0.00 0.00 60 977.2
20260505004847 69 211 4.3 9.6 0.00 0.00 0.00 60 977.2
20260505003344 70 190 2.6 7.8 0.00 0.00 0.00 57 977.4
20260505001841 71 347 3.5 9.6 0.00 0.00 0.00 53 976.9
20260505000338 73 217 7.8 13.0 0.00 0.00 0.00 44 977.1
20260504234834 74 206 1.7 6.1 0.00 0.00 0.00 39 976.9
20260504233330 75 158 1.7 5.2 0.00 0.00 0.00 38 976.9
20260504231826 75 146 1.7 7.8 0.00 0.00 0.00 38 977.2
20260504230323 76 210 2.6 6.1 0.00 0.00 0.00 37 977.7
20260504224821 74 183 2.6 7.0 0.00 0.00 0.00 39 978.0
20260504223315 75 186 1.7 6.1 0.00 0.00 0.00 38 978.3
20260504221814 76 199 2.6 7.0 0.00 0.00 0.00 38 978.3
20260504220309 74 170 5.2 9.6 0.00 0.00 0.00 38 978.5
20260504214804 75 233 4.3 12.2 0.00 0.00 0.00 39 978.7
20260504213300 76 166 5.2 7.8 0.00 0.00 0.00 39 978.7